This is the latest recevied weather packets stored in our database for station/object SQ5JP-4. If no packets are shown the sender has not sent any weather packets the latest 10 day(s).
| Time | Temp. | Humidity | Pressure | Rain* | Wind** | Luminosity | Snow |
|---|---|---|---|---|---|---|---|
| 1788343437 | 20.56° C | 100% | 1001.9 hPa | - | - | - | - |
| 1788341637 | 20.56° C | 100% | 1001.8 hPa | - | - | - | - |
| 1788340737 | 20° C | 100% | 1001.8 hPa | - | - | - | - |
| 1788339837 | 19.44° C | 100% | 1001.6 hPa | - | - | - | - |
| 1788338937 | 18.89° C | 100% | 1001.6 hPa | - | - | - | - |
| 1788338036 | 18.89° C | 100% | 1001.6 hPa | - | - | - | - |
| 1788337136 | 18.89° C | 100% | 1001.6 hPa | - | - | - | - |
| 1788336235 | 18.89° C | 100% | 1001.4 hPa | - | - | - | - |
| 1788335335 | 17.78° C | 100% | 1001.3 hPa | - | - | - | - |
| 1788334435 | 18.33° C | 100% | 1001.1 hPa | - | - | - | - |
| 1788333534 | 17.22° C | 100% | 1000.8 hPa | - | - | - | - |
| 1788332638 | 16.67° C | 100% | 1000.5 hPa | - | - | - | - |
| 1788331738 | 16.67° C | 100% | 1000.5 hPa | - | - | - | - |
| 1788330838 | 16.67° C | 100% | 1000 hPa | - | - | - | - |
| 1788329938 | 15.56° C | 100% | 999.6 hPa | - | - | - | - |
| 1788329038 | 15° C | 100% | 999.3 hPa | - | - | - | - |
| 1788328138 | 14.44° C | 100% | 999.1 hPa | - | - | - | - |
| 1788327238 | 13.89° C | 100% | 998.8 hPa | - | - | - | - |
| 1788326339 | 13.33° C | 100% | 998.7 hPa | - | - | - | - |
| 1788302038 | 13.33° C | 100% | 998.2 hPa | - | - | - | - |
| 1788301138 | 13.33° C | 100% | 998.2 hPa | - | - | - | - |
| 1788300238 | 13.33° C | 100% | 998.2 hPa | - | - | - | - |
| 1788299338 | 13.33° C | 100% | 998.2 hPa | - | - | - | - |
| 1788298438 | 13.89° C | 100% | 998.4 hPa | - | - | - | - |
| 1788297538 | 13.89° C | 100% | 998.4 hPa | - | - | - | - |
* Rain since midnight (hover to see other rain measurements)
** Current wind speed in m/s (hover to see current wind gust speed)